Weather Roundup
Issued by NWS Corpus Christi, TX

Home | Current Version | Previous Version | Text Only | Print | Product List | Glossary On
Versions: 1 2 3 4 5 6 7 8 9 10 11 12 13 14 15 16 17 18 19 20 21 22 23 24 25 26 27 28 29 30 31 32 33 34 35 36 37 38 39 40 41 42 43 44 45 46 47 48 49 50
000
ASUS44 KCRP 270710
HRRCRP

SOUTH TEXAS REGIONAL WEATHER ROUNDUP
NATIONAL WEATHER SERVICE CORPUS CHRISTI TX
200 AM CDT FRI MAR 27 2015


TXZ229>244-270800-
...CORPUS CHRISTI AREA OBSERVATIONS...

CITY           SKY/WX    TMP DP  RH WIND       PRES   REMARKS
CORPUS CHRISTI PTCLDY    58  47  66 N9        30.18R
NAS CORPUS CHR CLEAR     62  46  55 N18       30.18R
ROCKPORT       CLEAR     59  45  59 N13       30.17R
KINGSVILLE NAS CLEAR     55  51  86 NW7       30.19R
ALICE          CLEAR     56  48  74 N7        30.19R
FALFURRIAS     CLEAR     56  51  85 NW5       30.20R
$$

...VICTORIA AREA OBSERVATIONS...

CITY           SKY/WX    TMP DP  RH WIND       PRES   REMARKS
VICTORIA       CLEAR     48  44  86 NW8       30.16S
BEEVILLE       FAIR      53  45  72 N6        30.18R
PLEASANTON     CLEAR     48  41  75 NW6       30.22R
SAN ANTONIO    CLEAR     49  36  61 W6        30.22R
$$

...LAREDO AREA OBSERVATIONS...

CITY           SKY/WX    TMP DP  RH WIND       PRES   REMARKS
LAREDO         CLEAR     56  49  77 NW3       30.25R
COTULLA        CLEAR     58  39  49 N8        30.22R
DEL RIO        CLEAR     52  42  69 CALM      30.24R
MCALLEN        PTCLDY    60  53  77 NW5       30.20R
HEBBRONVILLE   NOT AVBL
$$

...OTHER TEXAS OBSERVATIONS...

CITY           SKY/WX    TMP DP  RH WIND       PRES   REMARKS
BROWNSVILLE    MOCLDY    60  53  77 NW10      30.16R
HOUSTON        CLEAR     54  40  59 N7        30.13R
COL. STATION   CLEAR     49  39  68 NW6       30.16S
AUSTIN         CLEAR     52  35  52 NW6       30.19S
WACO           CLEAR     42  36  79 W6        30.16F
FORT WORTH     CLEAR     49  35  58 SW7       30.12F
WICHITA FALLS  CLEAR     48  35  60 SW12      30.10F
LUBBOCK        PTCLDY    43  19  38 W9        30.18S
EL PASO        CLEAR     56  28  34 S3        30.25R
$$

...MARINE OBSERVATIONS...

STATION/POSITION TIME  SKY/WX   TEMP    WIND        PRES    VSBY  WAVE   SWELL
                                AIR SEA DIR/SP/G                  HT/PER HT/PER
                 (UTC)          (F)     (DEG/KT/KT) (MB)    (MI)  (FT/S) (FT/S)
PORT ARANSAS     0600            64 65  360/ 16/ 19 1021.4R
BUOY 90 E PORT A 0700            64 69  360/ 17/ 23 1019.6R         6/ 6
BUOY 45 SE BAFFI 0700            66 71  360/ 23/ 27 1019.6R         6/ 6
BUOY 200 E PT IS 0700            71 73  350/ 19/ 23 1015.6R         7/ 7
BUOY 15 E GALVES 0700            60 64   10/ 17/ 21 1018.3R         4/ 4
$$



USA.gov is the U.S. government's official web portal to all federal, state and local government web resources and services.